Regional Weather Roundup
Issued by NWS Goodland, KS

Home | Current Version | Previous Version | Graphics & Text | Print | Product List | Glossary On
Versions: 1 2 3 4 5 6 7 8 9 10 11 12 13 14 15 16 17 18 19 20 21 22 23 24 25 26 27 28 29 30 31 32 33 34 35 36 37 38 39 40 41 42 43 44 45 46 47 48 49 50
000
ASUS43 KGLD 300708
RWRGLD

GOODLAND FORECAST AREA HOURLY WEATHER ROUNDUP
NATIONAL WEATHER SERVICE GOODLAND KS
100 AM MDT SUN APR 30 2017

...OFFICIAL OBSERVATIONS...

CITY           SKY/WX    TMP DP  RH WIND       PRES   REMARKS
GOODLAND KS    FLURRIES  32  31  96 N30G39    29.88  WCI  18
HILL CITY KS   MIX PCPN  35  34  96 N26G36    29.85  FOG
IMPERIAL NEB   CLOUDY    39  24  55 N18G28    29.98F
MCCOOK NEB     LGT SNOW  34  33  96 N23G30    29.92F FOG
AKRON CO       CLOUDY    33  25  72 N14       30.04F
BURLINGTON CO  NOT AVBL
LIMON CO       CLOUDY    29  24  82 NW24      30.01F WCI  15
$$

...UNOFFICIAL OBSERVATIONS...

CITY           SKY/WX    TMP DP  RH WIND       PRES   REMARKS
LENORA KS        N/A     32  32 100 MISG        N/A
NORTON KS      LGT RAIN  36  32  87 N23G31    29.86F
SHARON SPRINGS   N/A     32  31  96 N18G25      N/A
TRENTON NEB      N/A     35  32  89 NE14        N/A
KIT CARSON CO    N/A     35  26  69 MISG        N/A
YUMA CO        CLOUDY    36  25  64 N14       30.01F
$$



USA.gov is the U.S. government's official web portal to all federal, state and local government web resources and services.